Weather History for Isachsen, NU

Change the Weather History Date:

Wednesday, October 16, 2013

  Actual Average Record
Temperature  
Mean Temperature 2 °F -  
Max Temperature 15 °F - - ()
Min Temperature -10 °F - - ()
Degree Days  
Heating Degree Days 62    
Moisture  
Dew Point 5 °F    
Average Humidity 88    
Maximum Humidity 94    
Minimum Humidity 75    
Precipitation  
Precipitation 0.01 in - - ()
Sea Level Pressure  
Sea Level Pressure 29.93 in    
Wind  
Wind Speed 6 mph ()    
Max Wind Speed 17 mph    
Max Gust Speed -    
T = Trace of Precipitation, MM = Missing Value Source: Averaged Metar Reports

Daily Weather History Graph

Daily Weather History Graph

Search for Another Location

Airport:

Trip Planner

Search our weather history database for the weather conditions in past years. The results will help you decide how hot, cold, wet, or windy it might be!

Date:

Astronomy

Oct. 16, 2013 Rise Set
Actual Time 9:48 AM MDT 3:28 PM MDT
Civil Twilight 7:40 AM MDT 5:35 PM MDT
Nautical Twilight 5:34 AM MDT 7:40 PM MDT
Astronomical Twilight 3:03 AM MDT 10:06 PM MDT
Moon 4:15 PM MDT (10/16) 4:36 AM MDT (10/16)
Length of Visible Light 9h 55m
Length of Day
5h 40m
Waxing Gibbous, 94% of the Moon is Illuminated
Oct 16
Waxing Gibbous
Oct 18
Full
Oct 26
Last Quarter
Nov 3
New
Nov 9
First Quarter

Hourly Weather History & Observations

Time (MDT) Temp. Windchill Dew Point Humidity Pressure Visibility Wind Dir Wind Speed Gust Speed Precip Events Conditions
12:00 AM -7 °F - -11 °F 75% 30.00 in - East 6.9 mph - -  
12:00 AM -7.4 °F -21.9 °F -10.7 °F 86% 30.00 in - East 6.9 mph - N/A   Unknown
1:00 AM -6.0 °F -20.1 °F -9.8 °F 84% 29.97 in - NE 6.9 mph - N/A   Unknown
2:00 AM -2.9 °F - -5.8 °F 87% 29.96 in - SSE 2.3 mph - N/A   Unknown
3:00 AM -0.0 °F - -2.9 °F 88% 29.96 in - East 2.3 mph - N/A   Unknown
4:00 AM 2.7 °F -8.4 °F 0.3 °F 90% 29.96 in - ESE 5.8 mph - N/A   Unknown
5:00 AM 5.7 °F -3.2 °F 3.7 °F 92% 29.94 in - ENE 4.6 mph - N/A   Unknown
6:00 AM 10 °F - 7 °F 83% 29.92 in - NNE 6.9 mph - -  
6:00 AM 9.5 °F -2.6 °F 7.2 °F 90% 29.92 in - North 8.1 mph - N/A   Unknown
7:00 AM 9.5 °F 1.2 °F 7.0 °F 90% 29.92 in - ENE 4.6 mph - N/A   Unknown
8:00 AM 9.5 °F -0.3 °F 7.5 °F 92% 29.91 in - East 5.8 mph - N/A   Unknown
9:00 AM 8.6 °F -1.3 °F 6.8 °F 92% 29.91 in - ESE 5.8 mph - N/A   Unknown
2:00 PM 13.5 °F 4.4 °F 12.0 °F 94% 29.91 in - East 5.8 mph - N/A   Unknown
3:00 PM 13.6 °F 6.0 °F 12.0 °F 93% 29.91 in - SE 4.6 mph - N/A   Unknown
4:00 PM 13.8 °F 3.7 °F 12.0 °F 93% 29.91 in - SE 6.9 mph - N/A   Unknown
5:00 PM 13.5 °F 7.5 °F 11.8 °F 93% 29.91 in - ENE 3.5 mph - N/A   Unknown
6:00 PM 15 °F - 12 °F 80% 29.91 in - NNE 10.4 mph - -  
6:00 PM 15.1 °F 3.3 °F 11.8 °F 87% 29.91 in - NNE 9.2 mph - N/A   Unknown
7:00 PM 11.5 °F 2.1 °F 9.9 °F 93% 29.91 in - ESE 5.8 mph - N/A   Unknown
8:00 PM 14.4 °F 3.3 °F 11.3 °F 88% 29.89 in - North 8.1 mph - N/A   Unknown
9:00 PM 15.3 °F 0.2 °F 12.2 °F 88% 29.88 in - NE 15.0 mph - N/A   Unknown
10:00 PM 15.4 °F -0.6 °F 9.3 °F 77% - - NNE 17.3 mph - 0.01 in   Unknown
11:00 PM 14.4 °F -1.0 °F 9.3 °F 80% - - NE 15.0 mph - N/A   Unknown